User: anonymous   Login
Location: Unspecified
(0.0000°N, 0.0000°E)
Time: 00:44:21
(UTC+00:00)
Language:

METEOR M2 - Orbit

View from above orbital plane
View from above orbital plane
View from above satellite
View from above satellite

Ground track
Ground track

The orbit data is extracted from the following two-line orbital elements,

1 40069U 14037A   24106.57232497  .00000309  00000-0  16167-3 0  9992
2 40069  98.4363 103.6139 0005841 168.5056 191.6256 14.20928285506738
Epoch (UTC): 15 April 2024 13:44:08
Eccentricity: 0.0005841
inclination: 98.4363°
perigee height: 818 km
apogee height: 826 km
right ascension of ascending node: 103.6139°
argument of perigee: 168.5056°
revolutions per day: 14.20928285
mean anomaly at epoch: 191.6256°
orbit number at epoch: 50673

The dashed part of the orbit path shows where the satellite is in the earth's shadow,  

DLR